Flag for Germany Weather past 2 weeks in Neubrandenburg, Mecklenburg-Western Pomerania, Germany

Now
56 °F

Overcast.


Feels Like: 55 °F
Forecast: 46 / 60 °F
Wind: 5 mph from Southeast

Location: Greifswald

Current Time: May 29, 2015 at 10:37:22 PM

Latest Report: May 29, 2015 at 10:00 PM


Visibility: 31 mi

Pressure: 29.72 "Hg

Humidity: 70%

Dew point: 46 °F

Location of NeubrandenburgLocation

Historic Weather in Neubrandenburg — Graph

°F

Neubrandenburg temperature yesterday

Maximum temperature yesterday: 65 °F (at 2:00 PM)
Minimum temperature yesterday: 45 °F (at 4:00 AM)
Average temperature yesterday: 53 °F

Past Weeks' High & Low Weather Summary

 TemperatureHumidityPressure
High65 °F (May 28, 2:00 PM)97% (May 20, 4:00 AM)30.31 "Hg (May 20, 4:00 AM)
Low40 °F (May 20, 5:00 AM)40% (May 29, 4:00 PM)29.57 "Hg (May 19, 5:00 AM)
Average52 °F73%30.00 "Hg
* Reported May 14 9:00 PM — May 29 9:00 PM, Neubrandenburg, Weather by CustomWeather, © 2015

Note: Actual official high and low records may vary slightly from our data, if they occured in-between our weather recording intervals... More about our weather records

Advertising

Neubrandenburg weather history for previous 24 hours

 ConditionsComfort  
Time TempWeatherWind HumidityBarometerVisibility
9:00 PM
Fri, May 29
57 °FPartly sunny.5 mph64%29.75 "Hg37 mi
8:00 PM60 °FPartly sunny.5 mph51%29.76 "Hg37 mi
7:00 PM61 °FOvercast.3 mph45%29.78 "Hg40 mi
6:00 PM60 °FOvercast.3 mph45%29.80 "Hg40 mi
4:00 PM60 °FOvercast.3 mph40%29.84 "Hg37 mi
3:00 PM60 °FOvercast.3 mph42%29.86 "Hg37 mi
2:00 PM58 °FOvercast.5 mph45%29.88 "Hg37 mi
1:00 PM59 °FOvercast.3 mph48%29.89 "Hg37 mi
12:00 PM56 °FOvercast.5 mph52%29.91 "Hg37 mi
10:00 AM53 °FScattered clouds.3 mph66%29.92 "Hg31 mi
9:00 AM51 °FPassing clouds.3 mph74%29.92 "Hg22 mi
8:00 AM49 °FSunny.3 mph82%29.91 "Hg17 mi
7:00 AM46 °FSunny.3 mph87%29.91 "Hg16 mi
6:00 AM43 °FSunny.2 mph94%29.90 "Hg9 mi
4:00 AM44 °FClear.2 mph93%29.89 "Hg7 mi
3:00 AM45 °FClear.2 mph93%29.89 "Hg9 mi
2:00 AM46 °FClear.3 mph95%29.89 "Hg9 mi
1:00 AM47 °FClear.2 mph94%29.88 "Hg12 mi
10:00 PM
Thu, May 28
50 °FPassing clouds.3 mph93%29.86 "Hg16 mi
Weather by CustomWeather, © 2015

See weather overviewHow to use our weather pages